User: anonymous   Login
Location: *
(37.5724°S, 58.0067°E)
Time: 11:33:35
(UTC+00:00)
Language:

Lacrosse 5 - Orbit

View from above orbital plane
View from above orbital plane
View from above satellite
View from above satellite

Ground track
Ground track

The orbit data is extracted from the following two-line orbital elements,

1 28646U 05016A   20335.21109576 0.00000000  00000-0  00000-0 0    05
2 28646  57.0284  97.4638 0008078 136.0876 223.9674 14.51861195    09
Epoch (UTC): 30 November 2020 05:03:58
Eccentricity: 0.0008078
inclination: 57.0284°
perigee height: 714 km
apogee height: 725 km
right ascension of ascending node: 97.4638°
argument of perigee: 136.0876°
revolutions per day: 14.51861195
mean anomaly at epoch: 223.9674°
orbit number at epoch: 0

The dashed part of the orbit path shows where the satellite is in the earth's shadow,  

DLR